Location: Newark
(45.7667°N, 11.5167°E)
Time: 02:23:32
(UTC+00:00)

Envisat - Pass Details

Date: 01 February 2020
Orbit: 764 x 766 km, 98.1° (Epoch: 25 February)

Event Time Altitude Azimuth Distance (km) Brightness Sun altitude
Rises 05:11:14 0° 22° (NNE) 3,242 6.4 -15.0°
Reaches altitude 10° 05:13:47 10° 32° (NNE) 2,311 5.8 -14.6°
Maximum altitude 05:18:19 32° 95° (E) 1,304 5.0 -13.8°
Drops below altitude 10° 05:22:49 10° 158° (SSE) 2,295 5.9 -13.1°
Sets 05:25:20 0° 168° (SSE) 3,216 6.6 -12.6°
